FLI9468 BIAR-EKVG

Flight info

Callsign FLI9468
Flight time 0h 59m
Altitude 39000
Route MAMEP1F MAMEP DCT MAGNI
Aircraft A20N/M-SDE2E3FGHIRWXY/LB1

Departure

Time 2026-04-26 19:36
Airport Akureyri International Airport (BIAR)

Arrival

Time 2026-04-26 20:36
Airport Vágar Airport (EKVG)
Time Latitude Longitude Altitude Speed Heading
2026-04-26 19:27 65.65475 -18.07488 7 ft 0 kts 358°
2026-04-26 19:32 65.65479 -18.07487 7 ft 1 kts
2026-04-26 19:33 65.65479 -18.07440 6 ft 5 kts 101°
2026-04-26 19:33 65.65476 -18.07294 3 ft 12 kts 87°
2026-04-26 19:33 65.65443 -18.07160 0 ft 11 kts 170°
2026-04-26 19:33 65.65368 -18.07141 1 ft 10 kts 175°
2026-04-26 19:34 65.65293 -18.07128 3 ft 11 kts 176°
2026-04-26 19:34 65.65207 -18.07112 5 ft 13 kts 175°
2026-04-26 19:34 65.65106 -18.07094 8 ft 15 kts 175°
2026-04-26 19:34 65.64996 -18.07071 9 ft 17 kts 175°
2026-04-26 19:35 65.64855 -18.07045 11 ft 22 kts 176°
2026-04-26 19:35 65.64696 -18.07015 13 ft 22 kts 176°
2026-04-26 19:35 65.64613 -18.06971 13 ft 2 kts 179°
2026-04-26 19:35 65.64609 -18.06985 14 ft 0 kts 267°
2026-04-26 19:36 65.64612 -18.06990 14 ft 1 kts 336°
2026-04-26 19:36 65.64629 -18.06999 14 ft 7 kts 350°
2026-04-26 19:36 65.65228 -18.07116 5 ft 126 kts 355°
2026-04-26 19:36 65.66186 -18.07307 620 ft 145 kts 351°
2026-04-26 19:37 65.67156 -18.07877 1497 ft 153 kts 344°
2026-04-26 19:37 65.68195 -18.08600 2362 ft 164 kts 345°
2026-04-26 19:37 65.69327 -18.09320 3090 ft 179 kts 346°
2026-04-26 19:37 65.70582 -18.10043 3810 ft 197 kts 347°
2026-04-26 19:38 65.71989 -18.10806 4502 ft 221 kts 347°
2026-04-26 19:38 65.73553 -18.11422 5322 ft 241 kts
2026-04-26 19:38 65.75163 -18.10090 6139 ft 260 kts 39°
2026-04-26 19:38 65.76221 -18.06588 7018 ft 271 kts 72°
2026-04-26 19:39 65.76395 -18.02102 8138 ft 271 kts 105°
2026-04-26 19:39 65.75623 -17.98108 9339 ft 267 kts 128°
2026-04-26 19:39 65.74567 -17.94478 10490 ft 272 kts 127°
2026-04-26 19:39 65.73476 -17.90663 11365 ft 287 kts 127°
2026-04-26 19:40 65.72311 -17.86568 12092 ft 306 kts 126°
2026-04-26 19:40 65.71079 -17.82220 12789 ft 326 kts 126°
2026-04-26 19:40 65.69778 -17.77626 13616 ft 339 kts 126°
2026-04-26 19:40 65.68430 -17.72871 14663 ft 345 kts 126°
2026-04-26 19:41 65.67075 -17.68093 15691 ft 350 kts 126°
2026-04-26 19:41 65.65694 -17.63235 16678 ft 355 kts 126°
2026-04-26 19:41 65.64303 -17.58358 17615 ft 360 kts 126°
2026-04-26 19:41 65.63346 -17.55009 18245 ft 363 kts 126°
2026-04-26 19:42 65.61445 -17.48374 19441 ft 370 kts 126°
2026-04-26 19:42 65.59965 -17.43223 20337 ft 374 kts 126°
2026-04-26 19:42 65.58488 -17.38095 21172 ft 379 kts 126°
2026-04-26 19:42 65.56991 -17.32910 22002 ft 384 kts 127°
2026-04-26 19:43 65.55453 -17.27596 22809 ft 388 kts 127°
2026-04-26 19:43 65.53907 -17.22267 23587 ft 393 kts 127°
2026-04-26 19:43 65.52345 -17.16894 24345 ft 397 kts 127°
2026-04-26 19:43 65.50750 -17.11426 25045 ft 401 kts 127°
2026-04-26 19:44 65.49145 -17.05934 25704 ft 406 kts 127°
2026-04-26 19:44 65.47527 -17.00415 26338 ft 411 kts 127°
2026-04-26 19:44 65.45880 -16.94809 26942 ft 416 kts 127°
2026-04-26 19:44 65.44217 -16.89156 27523 ft 420 kts 127°
2026-04-26 19:45 65.42512 -16.83382 28087 ft 425 kts 127°
2026-04-26 19:45 65.40797 -16.77583 28635 ft 430 kts 127°
2026-04-26 19:45 65.39082 -16.71804 29156 ft 434 kts 127°
2026-04-26 19:45 65.37321 -16.65879 29666 ft 438 kts 127°
2026-04-26 19:46 65.35550 -16.59943 30154 ft 442 kts 127°
2026-04-26 19:46 65.33761 -16.53962 30642 ft 446 kts 127°
2026-04-26 19:46 65.31964 -16.47970 31107 ft 449 kts 127°
2026-04-26 19:46 65.30133 -16.41884 31518 ft 452 kts 127°
2026-04-26 19:47 65.28321 -16.35879 32049 ft 451 kts 127°
2026-04-26 19:47 65.27105 -16.31853 32494 ft 447 kts 128°
2026-04-26 19:47 65.24701 -16.23924 33223 ft 444 kts 128°
2026-04-26 19:47 65.22895 -16.17980 33625 ft 445 kts 128°
2026-04-26 19:48 65.21093 -16.12065 34005 ft 447 kts 127°
2026-04-26 19:48 65.19270 -16.06102 34338 ft 448 kts 128°
2026-04-26 19:48 65.17450 -16.00157 34682 ft 449 kts 128°
2026-04-26 19:48 65.15601 -15.94133 35046 ft 450 kts 128°
2026-04-26 19:49 65.13765 -15.88166 35392 ft 450 kts 128°
2026-04-26 19:49 65.11946 -15.82278 35744 ft 450 kts 128°
2026-04-26 19:49 65.10092 -15.76289 36109 ft 450 kts 128°
2026-04-26 19:49 65.08259 -15.70388 36466 ft 449 kts 128°
2026-04-26 19:50 65.06403 -15.64426 36789 ft 449 kts 128°
2026-04-26 19:50 65.04565 -15.58538 37073 ft 450 kts 128°
2026-04-26 19:50 65.02689 -15.52548 37366 ft 451 kts 128°
2026-04-26 19:50 65.00848 -15.46684 37641 ft 452 kts 128°
2026-04-26 19:51 64.98980 -15.40752 37915 ft 453 kts 128°
2026-04-26 19:51 64.97102 -15.34796 38173 ft 454 kts 129°
2026-04-26 19:51 64.95210 -15.28814 38434 ft 455 kts 129°
2026-04-26 19:51 64.93345 -15.22933 38697 ft 455 kts 129°
2026-04-26 19:52 64.91446 -15.16959 38941 ft 456 kts 129°
2026-04-26 19:52 64.89547 -15.11008 38979 ft 460 kts 129°
2026-04-26 19:52 64.85697 -14.98989 38990 ft 462 kts 129°
2026-04-26 19:53 64.81843 -14.87012 38989 ft 462 kts 129°
2026-04-26 19:53 64.77982 -14.75091 38985 ft 462 kts 129°
2026-04-26 19:54 64.74116 -14.63205 38994 ft 463 kts 129°
2026-04-26 19:54 64.70235 -14.51334 39015 ft 463 kts 129°
2026-04-26 19:55 64.66311 -14.39399 39029 ft 464 kts 129°
2026-04-26 19:55 64.62405 -14.27584 39031 ft 463 kts 130°
2026-04-26 19:56 64.58488 -14.15799 39038 ft 463 kts 129°
2026-04-26 19:56 64.54561 -14.04044 39051 ft 463 kts 129°
2026-04-26 19:57 64.50615 -13.92291 39056 ft 463 kts 130°
2026-04-26 19:57 64.46655 -13.80568 39059 ft 463 kts 129°
2026-04-26 19:58 64.42703 -13.68920 39057 ft 463 kts 129°
2026-04-26 19:58 64.38716 -13.57235 39061 ft 463 kts 129°
2026-04-26 19:59 64.34752 -13.45675 39059 ft 464 kts 129°
2026-04-26 19:59 64.30749 -13.34067 39060 ft 464 kts 130°
2026-04-26 20:00 64.26739 -13.22496 39060 ft 464 kts 130°
2026-04-26 20:00 64.22739 -13.11008 39055 ft 465 kts 130°
2026-04-26 20:01 64.18694 -12.99456 39057 ft 465 kts 130°
2026-04-26 20:01 64.14652 -12.87975 39058 ft 465 kts 130°
2026-04-26 20:02 64.10618 -12.76567 39057 ft 465 kts 130°
2026-04-26 20:02 64.07246 -12.67082 39065 ft 464 kts 130°
2026-04-26 20:03 64.02509 -12.53821 39064 ft 464 kts 130°
2026-04-26 20:03 63.98440 -12.42493 39063 ft 464 kts 130°
2026-04-26 20:04 63.94364 -12.31204 39070 ft 464 kts 131°
2026-04-26 20:04 63.90281 -12.19951 39071 ft 464 kts 131°
2026-04-26 20:05 63.86178 -12.08699 39071 ft 464 kts 131°
2026-04-26 20:05 63.82092 -11.97556 39073 ft 463 kts 131°
2026-04-26 20:06 63.78002 -11.86452 39074 ft 463 kts 131°
2026-04-26 20:06 63.73868 -11.75290 39069 ft 464 kts 131°
2026-04-26 20:07 63.69752 -11.64227 39072 ft 464 kts 131°
2026-04-26 20:07 63.65606 -11.53136 39075 ft 464 kts 131°
2026-04-26 20:08 63.61487 -11.42176 39074 ft 463 kts 131°
2026-04-26 20:08 63.57338 -11.31190 39077 ft 463 kts 132°
2026-04-26 20:09 63.53169 -11.20203 39077 ft 463 kts 132°
2026-04-26 20:09 63.49004 -11.09285 39076 ft 464 kts 132°
2026-04-26 20:10 63.44826 -10.98382 39079 ft 464 kts 132°
2026-04-26 20:10 63.40643 -10.87524 39082 ft 464 kts 131°
2026-04-26 20:11 63.36470 -10.76741 39085 ft 464 kts 131°
2026-04-26 20:12 63.30162 -10.60539 39057 ft 464 kts 131°
2026-04-26 20:12 63.28033 -10.55100 38491 ft 467 kts 131°
2026-04-26 20:12 63.25931 -10.49742 37874 ft 467 kts 131°
2026-04-26 20:12 63.23788 -10.44289 37239 ft 467 kts 131°
2026-04-26 20:13 63.21672 -10.38918 36608 ft 466 kts 131°
2026-04-26 20:13 63.19569 -10.33597 35961 ft 465 kts 132°
2026-04-26 20:13 63.17470 -10.28297 35247 ft 464 kts 133°
2026-04-26 20:13 63.15350 -10.22957 34537 ft 463 kts 133°
2026-04-26 20:14 63.13243 -10.17665 33826 ft 462 kts 132°
2026-04-26 20:14 63.11128 -10.12370 33053 ft 461 kts 132°
2026-04-26 20:14 63.09038 -10.07137 32410 ft 454 kts 132°
2026-04-26 20:14 63.06970 -10.01969 31816 ft 446 kts 131°
2026-04-26 20:15 63.04951 -9.96938 31192 ft 437 kts 131°
2026-04-26 20:15 63.02988 -9.92057 30343 ft 423 kts 131°
2026-04-26 20:15 63.01076 -9.87311 29151 ft 411 kts 131°
2026-04-26 20:15 62.99220 -9.82718 28652 ft 399 kts 131°
2026-04-26 20:16 62.97389 -9.78194 28205 ft 396 kts 131°
2026-04-26 20:16 62.95569 -9.73710 27743 ft 394 kts 131°
2026-04-26 20:16 62.93760 -9.69267 27278 ft 392 kts 131°
2026-04-26 20:16 62.91958 -9.64854 26813 ft 390 kts 132°
2026-04-26 20:17 62.90157 -9.60451 26347 ft 389 kts 132°
2026-04-26 20:17 62.88372 -9.56097 25887 ft 386 kts 132°
2026-04-26 20:17 62.86589 -9.51752 25423 ft 384 kts 132°
2026-04-26 20:17 62.85418 -9.48903 25126 ft 383 kts 132°
2026-04-26 20:18 62.83052 -9.43156 24503 ft 380 kts 132°
2026-04-26 20:18 62.81291 -9.38883 24056 ft 378 kts 132°
2026-04-26 20:18 62.79553 -9.34677 23598 ft 376 kts 133°
2026-04-26 20:18 62.77814 -9.30474 23154 ft 375 kts 133°
2026-04-26 20:19 62.76062 -9.26250 22702 ft 373 kts 133°
2026-04-26 20:19 62.74353 -9.22138 22259 ft 371 kts 133°
2026-04-26 20:19 62.72608 -9.17946 21762 ft 369 kts 133°
2026-04-26 20:19 62.70897 -9.13845 21232 ft 367 kts 133°
2026-04-26 20:20 62.69201 -9.09787 20667 ft 365 kts 133°
2026-04-26 20:20 62.67522 -9.05779 20089 ft 363 kts 133°
2026-04-26 20:20 62.65820 -9.01723 19492 ft 362 kts 132°
2026-04-26 20:20 62.64144 -8.97738 18926 ft 360 kts 133°
2026-04-26 20:21 62.62463 -8.93745 18336 ft 358 kts 133°
2026-04-26 20:21 62.60798 -8.89790 17777 ft 355 kts 133°
2026-04-26 20:21 62.59149 -8.85888 17226 ft 353 kts 133°
2026-04-26 20:21 62.57510 -8.82014 16704 ft 349 kts 133°
2026-04-26 20:22 62.55878 -8.78166 16179 ft 346 kts 133°
2026-04-26 20:22 62.54274 -8.74388 15663 ft 343 kts 133°
2026-04-26 20:22 62.52656 -8.70585 15123 ft 340 kts 132°
2026-04-26 20:22 62.51083 -8.66892 14606 ft 337 kts 133°
2026-04-26 20:23 62.49505 -8.63198 14085 ft 334 kts 133°
2026-04-26 20:23 62.47942 -8.59540 13576 ft 331 kts 133°
2026-04-26 20:23 62.46391 -8.55921 13054 ft 328 kts 133°
2026-04-26 20:23 62.44843 -8.52312 12544 ft 325 kts 133°
2026-04-26 20:24 62.43325 -8.48778 12021 ft 325 kts 133°
2026-04-26 20:24 62.41792 -8.45218 11502 ft 324 kts 133°
2026-04-26 20:24 62.40284 -8.41722 10986 ft 321 kts 133°
2026-04-26 20:24 62.38774 -8.38229 10478 ft 319 kts 133°
2026-04-26 20:25 62.37290 -8.34798 10284 ft 305 kts 134°
2026-04-26 20:25 62.36358 -8.32644 10202 ft 294 kts 134°
2026-04-26 20:25 62.34541 -8.28451 9974 ft 284 kts 134°
2026-04-26 20:25 62.33207 -8.25379 9627 ft 282 kts 134°
2026-04-26 20:26 62.31874 -8.22313 9271 ft 280 kts 134°
2026-04-26 20:26 62.30560 -8.19297 8897 ft 280 kts 135°
2026-04-26 20:26 62.29235 -8.16257 8448 ft 280 kts 135°
2026-04-26 20:26 62.27917 -8.13239 8049 ft 277 kts 135°
2026-04-26 20:27 62.26596 -8.10219 7629 ft 276 kts 135°
2026-04-26 20:27 62.25291 -8.07239 7224 ft 274 kts 135°
2026-04-26 20:27 62.24009 -8.04317 6820 ft 273 kts 135°
2026-04-26 20:27 62.22701 -8.01339 6414 ft 275 kts 136°
2026-04-26 20:28 62.22362 -8.00571 6307 ft 275 kts 136°
2026-04-26 20:28 62.21361 -7.98299 6048 ft 273 kts 136°
2026-04-26 20:28 62.20070 -7.95362 5709 ft 271 kts 135°
2026-04-26 20:28 62.18791 -7.92459 5350 ft 269 kts 135°
2026-04-26 20:29 62.17515 -7.89575 4984 ft 269 kts 135°
2026-04-26 20:29 62.16232 -7.86677 4598 ft 268 kts 135°
2026-04-26 20:29 62.14964 -7.83815 4353 ft 265 kts 135°
2026-04-26 20:29 62.13757 -7.80998 4282 ft 252 kts 129°
2026-04-26 20:30 62.12968 -7.77750 4226 ft 240 kts 109°
2026-04-26 20:30 62.12542 -7.74430 4180 ft 226 kts 105°
2026-04-26 20:30 62.12182 -7.71278 4144 ft 212 kts 105°
2026-04-26 20:30 62.11846 -7.68322 4131 ft 198 kts 105°
2026-04-26 20:31 62.11528 -7.65615 4082 ft 182 kts 106°
2026-04-26 20:31 62.11221 -7.63080 3934 ft 175 kts 106°
2026-04-26 20:31 62.10913 -7.60550 3750 ft 176 kts 107°
2026-04-26 20:31 62.10605 -7.58059 3498 ft 174 kts 107°
2026-04-26 20:32 62.10302 -7.55619 3174 ft 172 kts 107°
2026-04-26 20:32 62.09997 -7.53164 2920 ft 171 kts 107°
2026-04-26 20:32 62.09695 -7.50724 2659 ft 169 kts 107°
2026-04-26 20:32 62.09398 -7.48346 2389 ft 161 kts 106°
2026-04-26 20:33 62.09125 -7.46147 2160 ft 149 kts 106°
2026-04-26 20:33 62.08870 -7.44091 1911 ft 138 kts 107°
2026-04-26 20:33 62.08636 -7.42198 1704 ft 126 kts 107°
2026-04-26 20:33 62.08418 -7.40453 1512 ft 119 kts 107°
2026-04-26 20:34 62.08203 -7.38758 1344 ft 118 kts 107°
2026-04-26 20:34 62.07994 -7.37095 1164 ft 117 kts 106°
2026-04-26 20:34 62.07784 -7.35428 996 ft 116 kts 106°
2026-04-26 20:34 62.07576 -7.33780 824 ft 115 kts 107°
2026-04-26 20:35 62.07368 -7.32133 646 ft 113 kts 108°
2026-04-26 20:35 62.07077 -7.30616 485 ft 111 kts 120°
2026-04-26 20:35 62.06715 -7.29162 324 ft 111 kts 118°
2026-04-26 20:35 62.06387 -7.27834 293 ft 74 kts 118°
2026-04-26 20:36 62.06242 -7.27248 282 ft 29 kts 118°
2026-04-26 20:36 62.06153 -7.26888 272 ft 28 kts 118°
2026-04-26 20:36 62.06057 -7.26499 259 ft 28 kts 116°
2026-04-26 20:36 62.05976 -7.26169 250 ft 22 kts 117°
2026-04-26 20:37 62.05952 -7.25985 247 ft 6 kts 100°
2026-04-26 20:37 62.05927 -7.25968 247 ft 4 kts 233°
2026-04-26 20:37 62.05949 -7.26056 248 ft 9 kts 301°
2026-04-26 20:37 62.05987 -7.26214 250 ft 14 kts 297°
2026-04-26 20:38 62.06040 -7.26428 256 ft 17 kts 298°
2026-04-26 20:38 62.06099 -7.26665 265 ft 18 kts 298°
2026-04-26 20:38 62.06163 -7.26923 273 ft 20 kts 298°
2026-04-26 20:38 62.06232 -7.27203 281 ft 22 kts 298°
2026-04-26 20:39 62.06306 -7.27504 289 ft 23 kts 298°
2026-04-26 20:39 62.06386 -7.27825 293 ft 24 kts 298°
2026-04-26 20:39 62.06451 -7.28090 291 ft 10 kts 298°
2026-04-26 20:39 62.06511 -7.28136 289 ft 12 kts 25°
2026-04-26 20:40 62.06601 -7.28089 288 ft 13 kts 359°
2026-04-26 20:40 62.06649 -7.28059 288 ft 7 kts 69°
2026-04-26 20:40 62.06663 -7.27977 288 ft 5 kts 43°
2026-04-26 20:40 62.06685 -7.27951 288 ft 1 kts 27°
2026-04-26 20:41 62.06686 -7.27950 288 ft 0 kts 27°